Terminal Aerodrome Forecast
Issued by NWS

Home | Current Version | Previous Version | Text Only | Print | Product List | Glossary On
Versions: 1 2 3 4 5 6 7 8 9 10 11 12 13 14 15 16 17 18 19 20 21 22 23 24 25 26 27
561
FTUS43 KDDC 211232 AAA
TAFHYS
TAF AMD
KHYS 211232Z 2113/2212 06015G25KT P6SM OVC040
      TEMPO 2114/2118 -RA
     FM211800 07012KT P6SM -SHRA OVC030
     FM212000 04010KT 3SM SHRA BR OVC015
     FM212200 03009KT 3SM SHRA BR OVC010=

USA.gov is the U.S. government's official web portal to all federal, state and local government web resources and services.